Simultaneous Nadir Overpasses (SNOs) Predictions

Prediction of SNOs between GOES-15 and METOP-B Satellite Orbit:

Table of predicted SNOs for the next 14.0 days since TLE Epoch: 9/21/2024
Index Date Time (GOES-15) GOES-15 Lat,Lon METOP-B Lat,Lon Distance(km) Time Diff (sec)
1 09/21/2024 05:14:42 -0.27, 61.25 -0.13, 60.63 70.47 80
2 09/22/2024 04:56:42 -0.25, 61.24 -1.25, 65.62 499.37 80
3 09/23/2024 17:13:00 0.27, 61.38 0.22, 61.02 40.22 80
4 09/26/2024 05:13:49 -0.28, 61.24 -0.33, 61.44 23.47 80
5 09/28/2024 17:12:06 0.28, 61.37 0.39, 61.84 53.60 80
6 09/30/2024 05:28:16 -0.30, 61.24 0.56, 57.26 452.54 80
7 10/01/2024 05:10:15 -0.29, 61.23 -0.53, 62.26 117.08 80
8 10/02/2024 17:26:32 0.30, 61.36 -0.52, 57.66 421.68 80
9 10/03/2024 17:08:31 0.29, 61.37 0.58, 62.66 147.39 80
